sat.trackr.live / text

‹ back to catalog

STARLINK-2128

NORAD 47404 · 2021-005BH

PAYLOAD ACTIVE UNKNOWN

§ Identity

Operator
Country
US
Launch date
2021-01-20
Launch site
AFETR
Launch vehicle
Mass (kg)
RCS (m²)

Purposes: comms

External: N2YO · Heavens-Above · Gunter

§ Orbital elements

Epoch: 2026-05-25T01:13:11.107200Z

Period
91.24 min
Inclination
53.0434°
Eccentricity
0.0003533
Mean motion
15.78252579 rev/d
Perigee alt
333.0 km
Apogee alt
337.8 km
Semi-major
6,713.5 km
B*
8.1404e-4
RAAN
358.9278°
Arg perigee
127.4433°
Mean anomaly
232.6909°
Rev number
29,567

§ Raw data

STARLINK-21281 47404U 21005BH  26145.05082300  .00144412  00000+0  81404-3 0  99982 47404  53.0434 358.9278 0003533 127.4433 232.6909 15.78252579295671

JSON: /api/v1/satellites/47404 · /tle

For live sub-satellite position, see the globe view (requires WebGL).

§ Visibility from observer

Set your observer location to see the next 7 days of passes ≥ 10°. The values pass through the URL so the page stays shareable.

No JS? Fill the form by hand. The geolocation button needs JavaScript.